Location: Grieser Field
(39.7333°N, 81.7975°W)
Time: 04:31:57
(UTC-04:00)

HST - Visible Passes

Search period start: 24 October 2014 00:00
Search period end: 02 November 2014 23:00
Orbit: 546 x 550 km, 28.5° (Epoch: 23 October)

Date Brightness Start Highest point End Pass type
(mag) Time Alt. Az. Time Alt. Az. Time Alt. Az.
25 Oct 3.5 20:50:27 10° SSW 20:50:43 11° SSW 20:50:43 11° SSW visible
26 Oct 3.2 20:42:46 10° SSW 20:43:54 14° SSW 20:43:54 14° SSW visible
27 Oct 3.0 20:35:12 10° SW 20:37:03 16° S 20:37:03 16° S visible
28 Oct 2.9 20:27:42 10° SW 20:30:11 17° S 20:30:11 17° S visible
29 Oct 2.8 20:20:16 10° SW 20:23:04 17° S 20:23:18 17° S visible
30 Oct 2.8 20:12:53 10° SW 20:15:38 17° S 20:16:25 16° S visible
31 Oct 3.0 20:05:34 10° SW 20:08:11 16° S 20:09:34 14° SSE visible
01 Nov 3.2 19:58:20 10° SW 20:00:44 15° S 20:02:45 11° SSE visible
02 Nov 3.3 18:51:13 10° SW 18:53:16 13° SSW 18:55:18 10° SSE visible
